Location: Unspecified
(0.0000°N, 0.0000°E)
Time: 21:08:06
(UTC+02:00)

Coronas F rocket - Visible Passes

Search period start: 28 August 2015 00:00
Search period end: 07 September 2015 00:00
Orbit: 360 x 372 km, 82.5° (Epoch: 27 August)

Date Brightness Start Highest point End Pass type
(mag) Time Alt. Az. Time Alt. Az. Time Alt. Az.
30 Aug 2.0 07:11:08 10° N 07:14:00 62° E 07:16:53 10° SSE visible
01 Sep 3.6 06:41:00 10° NNE 06:43:34 29° E 06:46:11 10° SSE visible
02 Sep 2.1 07:11:51 10° NNW 07:14:31 32° W 07:17:09 10° SSW visible
03 Sep 4.6 06:11:10 10° NE 06:12:59 16° E 06:14:55 10° SE visible
04 Sep5.106:48:10S06:48:10S06:39:40Nvisible
